This is the latest recevied weather packets stored in our database for station/object KM4KBD. If no packets are shown the sender has not sent any weather packets the latest 10 day(s).
| Time | Temp. | Humidity | Pressure | Rain* | Wind** | Luminosity | Snow |
|---|---|---|---|---|---|---|---|
| 1777994384 | 20.56° C | 60% | 1017.7 hPa | 0 mm | - | 305 W/m² | - |
| 1777994080 | 20.56° C | 59% | 1017.7 hPa | 0 mm | - | 287 W/m² | - |
| 1777993777 | 20.56° C | 59% | 1017.5 hPa | 0 mm | - | 285 W/m² | - |
| 1777993474 | 20.56° C | 59% | 1017.8 hPa | 0 mm | - | 306 W/m² | - |
| 1777993173 | 20.56° C | 59% | 1017.6 hPa | 0 mm | - | 346 W/m² | - |
| 1777992872 | 20.56° C | 60% | 1017.8 hPa | 0 mm | - | 345 W/m² | - |
| 1777992569 | 20.56° C | 59% | 1017.6 hPa | 0 mm | - | 368 W/m² | - |
| 1777992267 | 20° C | 60% | 1017.6 hPa | 0 mm | - | 348 W/m² | - |
| 1777991964 | 20° C | 60% | 1017.5 hPa | 0 mm | - | 352 W/m² | - |
| 1777991662 | 20° C | 59% | 1017.6 hPa | 0 mm | - | 323 W/m² | - |
| 1777991359 | 20° C | 60% | 1017.4 hPa | 0 mm | - | 314 W/m² | - |
| 1777991056 | 20° C | 62% | 1017.6 hPa | 0 mm | - | 297 W/m² | - |
| 1777990753 | 19.44° C | 61% | 1017.7 hPa | 0 mm | - | 263 W/m² | - |
| 1777990450 | 19.44° C | 62% | 1017.9 hPa | 0 mm | - | 216 W/m² | - |
| 1777989844 | 19.44° C | 60% | 1017.9 hPa | 0 mm | - | 240 W/m² | - |
| 1777989541 | 19.44° C | 59% | 1018 hPa | 0 mm | - | 267 W/m² | - |
| 1777989237 | 19.44° C | 60% | 1018 hPa | 0 mm | - | 248 W/m² | - |
| 1777988933 | 19.44° C | 60% | 1017.9 hPa | 0 mm | - | 259 W/m² | - |
| 1777988630 | 19.44° C | 59% | 1017.9 hPa | 0 mm | - | 266 W/m² | - |
| 1777988327 | 19.44° C | 60% | 1017.9 hPa | 0 mm | - | 271 W/m² | - |
| 1777988024 | 18.89° C | 60% | 1018 hPa | 0 mm | - | 262 W/m² | - |
| 1777987719 | 18.89° C | 61% | 1018 hPa | 0 mm | - | 220 W/m² | - |
| 1777987417 | 18.89° C | 60% | 1018 hPa | 0 mm | - | 231 W/m² | - |
| 1777987113 | 18.89° C | 60% | 1018 hPa | 0 mm | - | 266 W/m² | - |
| 1777986811 | 18.89° C | 59% | 1018.3 hPa | 0 mm | - | 276 W/m² | - |
* Rain latest hour (hover to see other rain measurements)
** Current wind speed in m/s (hover to see current wind gust speed)